• In Netherlands
  • List of Countries
  • For 7 days
  • Water Temperature
  • Satellite Maps
  • Weather Map
  • Weather Widgets
  • user-avatar
    Login

    Hourly Weather Wlora

    Today, 28 May, Sunday

    Time Temperature Precipitation Wind Pressure Humidity
    00:00 +16°C° 0 mm 5 mps 761 mmHg 77%
    01:00 +15°C° 0 mm 4 mps 761 mmHg 74%
    02:00 +15°C° 0 mm 4 mps 761 mmHg 73%
    03:00 +15°C° 0 mm 4 mps 761 mmHg 72%
    04:00 +15°C° 0 mm 4 mps 761 mmHg 71%
    05:00 +17°C° 0 mm 4 mps 761 mmHg 68%
    06:00 +19°C° 0 mm 5 mps 761 mmHg 64%
    07:00 +21°C° 0 mm 4 mps 762 mmHg 58%
    08:00 +22°C° 0 mm 4 mps 762 mmHg 52%
    09:00 +25°C° 0 mm 4 mps 762 mmHg 47%
    10:00 +26°C° 0 mm 4 mps 762 mmHg 41%
    11:00 +27°C° 0.1 mm 5 mps 762 mmHg 41%
    12:00 +27°C° 0.1 mm 5 mps 762 mmHg 41%
    13:00 +27°C° 0 mm 5 mps 762 mmHg 43%
    14:00 +27°C° 0.1 mm 5 mps 762 mmHg 45%
    15:00 +26°C° 0.1 mm 6 mps 762 mmHg 48%
    16:00 +26°C° 0.1 mm 6 mps 762 mmHg 51%
    17:00 +23°C° 0 mm 5 mps 762 mmHg 59%
    18:00 +22°C° 0 mm 5 mps 763 mmHg 66%
    19:00 +20°C° 0 mm 4 mps 763 mmHg 74%
    20:00 +19°C° 0 mm 4 mps 763 mmHg 73%
    21:00 +19°C° 0 mm 4 mps 763 mmHg 73%
    22:00 +18°C° 0 mm 4 mps 764 mmHg 73%
    23:00 +18°C° 0 mm 3 mps 763 mmHg 73%

    Tomorrow, 29 May, Monday

    Time Temperature Precipitation Wind Pressure Humidity
    00:00 +18°C° 0 mm 3 mps 763 mmHg 73%
    01:00 +17°C° 0 mm 3 mps 763 mmHg 74%
    02:00 +17°C° 0 mm 3 mps 763 mmHg 74%
    03:00 +17°C° 0 mm 2 mps 763 mmHg 74%
    04:00 +17°C° 0 mm 2 mps 763 mmHg 74%
    05:00 +18°C° 0 mm 2 mps 763 mmHg 71%
    06:00 +20°C° 0 mm 2 mps 763 mmHg 67%
    07:00 +21°C° 0 mm 2 mps 763 mmHg 63%
    08:00 +24°C° 0 mm 1 mps 763 mmHg 58%
    09:00 +25°C° 0 mm 1 mps 763 mmHg 52%
    10:00 +27°C° 0 mm 1 mps 763 mmHg 47%
    11:00 +27°C° 0 mm 2 mps 763 mmHg 48%
    12:00 +27°C° 0 mm 2 mps 763 mmHg 49%
    13:00 +27°C° 0 mm 3 mps 762 mmHg 50%
    14:00 +26°C° 0.1 mm 3 mps 762 mmHg 52%
    15:00 +26°C° 0.1 mm 3 mps 762 mmHg 54%
    16:00 +25°C° 0.1 mm 3 mps 762 mmHg 56%
    17:00 +24°C° 0.1 mm 2 mps 762 mmHg 61%
    18:00 +21°C° 0.1 mm 2 mps 762 mmHg 67%
    19:00 +19°C° 0.1 mm 2 mps 762 mmHg 73%
    20:00 +19°C° 0 mm 2 mps 762 mmHg 74%
    21:00 +19°C° 0 mm 1 mps 762 mmHg 76%
    22:00 +19°C° 0 mm 1 mps 762 mmHg 77%
    23:00 +18°C° 0 mm 1 mps 762 mmHg 78%

    Day after tomorrow, 30 May, Tuesday

    Time Temperature Precipitation Wind Pressure Humidity
    00:00 +18°C° 0 mm 1 mps 762 mmHg 79%
    01:00 +18°C° 0 mm 1 mps 762 mmHg 79%
    02:00 +18°C° 0 mm 1 mps 762 mmHg 80%
    03:00 +18°C° 0 mm 1 mps 762 mmHg 81%
    04:00 +16°C° 0 mm 2 mps 762 mmHg 81%
    05:00 +18°C° 0 mm 2 mps 762 mmHg 74%
    06:00 +20°C° 0 mm 2 mps 762 mmHg 66%
    07:00 +23°C° 0 mm 2 mps 762 mmHg 59%
    08:00 +24°C° 0 mm 2 mps 762 mmHg 55%
    09:00 +25°C° 0 mm 2 mps 763 mmHg 51%
    10:00 +26°C° 0 mm 2 mps 763 mmHg 46%
    11:00 +27°C° 0 mm 2 mps 763 mmHg 44%
    12:00 +27°C° 0 mm 2 mps 763 mmHg 42%
    13:00 +28°C° 0 mm 2 mps 763 mmHg 41%
    14:00 +27°C° 0 mm 3 mps 763 mmHg 41%
    15:00 +27°C° 0 mm 3 mps 762 mmHg 41%
    16:00 +26°C° 0 mm 3 mps 762 mmHg 42%
    17:00 +24°C° 0 mm 3 mps 763 mmHg 50%
    18:00 +21°C° 0 mm 2 mps 763 mmHg 58%
    19:00 +19°C° 0 mm 2 mps 763 mmHg 66%
    20:00 +18°C° 0 mm 2 mps 763 mmHg 66%
    21:00 +18°C° 0 mm 2 mps 764 mmHg 65%
    22:00 +17°C° 0 mm 2 mps 764 mmHg 65%
    23:00 +17°C° 0 mm 2 mps 764 mmHg 66%

    31 May, Wednesday

    Time Temperature Precipitation Wind Pressure Humidity
    00:00 +17°C° 0 mm 2 mps 764 mmHg 67%
    01:00 +17°C° 0 mm 2 mps 764 mmHg 68%
    02:00 +18°C° 0 mm 1 mps 764 mmHg 71%
    03:00 +18°C° 0 mm 1 mps 764 mmHg 73%
    04:00 +16°C° 0 mm 1 mps 764 mmHg 75%
    05:00 +20°C° 0 mm 1 mps 764 mmHg 67%
    06:00 +22°C° 0 mm 1 mps 764 mmHg 60%
    07:00 +24°C° 0 mm 1 mps 764 mmHg 53%
    08:00 +25°C° 0 mm 2 mps 764 mmHg 50%
    09:00 +26°C° 0 mm 2 mps 764 mmHg 47%
    10:00 +27°C° 0 mm 3 mps 764 mmHg 44%
    11:00 +28°C° 0 mm 3 mps 764 mmHg 45%
    12:00 +28°C° 0 mm 3 mps 764 mmHg 45%
    13:00 +28°C° 0 mm 4 mps 764 mmHg 45%
    14:00 +28°C° 0 mm 3 mps 764 mmHg 47%
    15:00 +27°C° 0 mm 3 mps 763 mmHg 49%
    16:00 +27°C° 0 mm 3 mps 763 mmHg 51%
    17:00 +25°C° 0 mm 2 mps 763 mmHg 60%
    18:00 +23°C° 0 mm 2 mps 763 mmHg 68%
    19:00 +20°C° 0 mm 2 mps 763 mmHg 77%
    20:00 +19°C° 0 mm 2 mps 763 mmHg 79%
    21:00 +19°C° 0 mm 1 mps 764 mmHg 81%
    22:00 +19°C° 0 mm 1 mps 764 mmHg 83%
    23:00 +19°C° 0 mm 1 mps 764 mmHg 82%

    1 June, Thursday

    Time Temperature Precipitation Wind Pressure Humidity
    00:00 +18°C° 0 mm 1 mps 764 mmHg 82%
    01:00 +18°C° 0 mm 1 mps 763 mmHg 82%
    02:00 +18°C° 0 mm 1 mps 763 mmHg 81%
    03:00 +18°C° 0 mm 1 mps 763 mmHg 80%
    04:00 +18°C° 0 mm 1 mps 763 mmHg 79%
    05:00 +20°C° 0 mm 1 mps 763 mmHg 69%
    06:00 +22°C° 0 mm 1 mps 763 mmHg 59%
    07:00 +24°C° 0 mm 1 mps 763 mmHg 49%
    08:00 +26°C° 0 mm 1 mps 763 mmHg 46%
    09:00 +27°C° 0 mm 1 mps 763 mmHg 42%
    10:00 +28°C° 0 mm 2 mps 763 mmHg 39%
    11:00 +29°C° 0 mm 2 mps 763 mmHg 39%
    12:00 +29°C° 0 mm 3 mps 763 mmHg 39%
    13:00 +29°C° 0 mm 4 mps 762 mmHg 39%
    14:00 +29°C° 0 mm 4 mps 762 mmHg 41%
    15:00 +29°C° 0 mm 4 mps 762 mmHg 43%
    16:00 +28°C° 0 mm 3 mps 762 mmHg 44%
    17:00 +26°C° 0 mm 3 mps 762 mmHg 51%
    18:00 +24°C° 0 mm 3 mps 762 mmHg 58%
    19:00 +21°C° 0 mm 2 mps 762 mmHg 65%
    20:00 +20°C° 0 mm 2 mps 762 mmHg 66%
    21:00 +19°C° 0 mm 2 mps 763 mmHg 68%
    22:00 +20°C° 0 mm 1 mps 763 mmHg 69%
    23:00 +18°C° 0 mm 2 mps 763 mmHg 66%

    2 June, Friday

    Time Temperature Precipitation Wind Pressure Humidity
    00:00 +18°C° 0 mm 2 mps 762 mmHg 63%
    01:00 +18°C° 0 mm 2 mps 762 mmHg 60%
    02:00 +18°C° 0 mm 2 mps 762 mmHg 59%
    03:00 +18°C° 0 mm 2 mps 762 mmHg 59%
    04:00 +18°C° 0 mm 2 mps 762 mmHg 58%
    05:00 +20°C° 0 mm 2 mps 762 mmHg 54%
    06:00 +23°C° 0 mm 2 mps 762 mmHg 50%
    07:00 +25°C° 0 mm 2 mps 762 mmHg 46%
    08:00 +27°C° 0 mm 3 mps 762 mmHg 44%
    09:00 +28°C° 0 mm 3 mps 762 mmHg 42%
    10:00 +29°C° 0 mm 3 mps 762 mmHg 40%
    11:00 +30°C° 0 mm 3 mps 762 mmHg 40%
    12:00 +30°C° 0 mm 4 mps 762 mmHg 39%
    13:00 +30°C° 0 mm 4 mps 761 mmHg 38%
    14:00 +30°C° 0 mm 4 mps 761 mmHg 40%
    15:00 +29°C° 0 mm 4 mps 761 mmHg 41%
    16:00 +29°C° 0 mm 4 mps 761 mmHg 43%
    17:00 +27°C° 0 mm 4 mps 761 mmHg 50%
    18:00 +25°C° 0 mm 3 mps 761 mmHg 57%
    19:00 +22°C° 0 mm 3 mps 761 mmHg 65%
    20:00 +21°C° 0 mm 3 mps 761 mmHg 67%
    21:00 +20°C° 0 mm 3 mps 761 mmHg 69%
    22:00 +19°C° 0 mm 2 mps 761 mmHg 72%
    23:00 +19°C° 0 mm 2 mps 761 mmHg 70%
    Show more